Stations météo

réclame
Mon MeteoGroup
Hohenfels, Allemagne (10775): Température de l'air & dewpoint: 14.06.2018 07:00:00 - 20.06.2018 07:00:00 (CEST)Hohenfels, Allemagne (10775): Vitesse du vent: 14.06.2018 07:00:00 - 20.06.2018 07:00:00 (CEST)Hohenfels, Allemagne (10775): Direction du vent: 14.06.2018 07:00:00 - 20.06.2018 07:00:00 (CEST)Hohenfels, Allemagne (10775): reduced air pressure: 14.06.2018 07:00:00 - 20.06.2018 07:00:00 (CEST)Hohenfels, Allemagne (10775): visibility: 14.06.2018 07:00:00 - 20.06.2018 07:00:00 (CEST)Hohenfels, Allemagne (10775): Quantités de précipitations: 14.06.2018 07:00:00 - 20.06.2018 07:00:00 (CEST)
Date & Time tt [°C] td [°C] ff [km/h] ff [knt] dd ppp [hPa] vv [km] rr [mm]
20.06.2018 07:00:00 15,9 15,3 0 0 N 1023,1 10 -
20.06.2018 06:00:00 14,9 14,7 0 0 N 1023,1 10 -
20.06.2018 05:00:00 14,4 14,2 0 0 N 1023,5 10 -
20.06.2018 04:00:00 15,1 14,5 5 3 W 1023,3 10 -
20.06.2018 03:00:00 16,7 15,2 5 3 W 1023,1 10 -
20.06.2018 02:00:00 17,9 15,7 0 0 N 1023,4 10 -
20.06.2018 01:00:00 18,3 15,7 0 0 N 1023,4 10 -
20.06.2018 00:00:00 18,6 15,8 0 0 N 1023,4 10 -
19.06.2018 23:00:00 19,3 15,7 5 3 WNW 1023,6 10 -
19.06.2018 22:00:00 20,6 16,0 0 0 N 1023,4 10 -
19.06.2018 21:00:00 - - - - - - - -
19.06.2018 20:00:00 22,2 15,3 8 4 WNW 1023,1 10 -
19.06.2018 19:00:00 23,5 14,7 9 5 NW 1023,1 10 -
19.06.2018 18:00:00 24,2 15,4 13 7 W 1023,5 10 -
19.06.2018 17:00:00 22,8 15,1 11 6 W 1024,0 10 -
19.06.2018 16:00:00 23,1 15,1 15 8 W 1024,0 10 -
19.06.2018 15:00:00 22,8 14,9 16 9 WNW 1024,1 10 -
19.06.2018 14:00:00 22,1 14,5 11 6 WNW 1024,3 10 -
19.06.2018 13:00:00 21,0 14,2 13 7 W 1024,7 10 -
19.06.2018 12:00:00 20,1 15,1 8 4 W 1024,7 10 -
19.06.2018 11:00:00 19,9 14,7 9 5 WSW 1024,5 10 -
19.06.2018 10:00:00 19,9 14,9 8 4 WNW 1024,3 10 -
19.06.2018 09:00:00 18,6 14,5 9 5 W 1024,1 10 -
19.06.2018 08:00:00 17,3 13,8 5 3 W 1024,0 10 -
19.06.2018 07:00:00 15,0 12,8 5 3 WNW - 10 -
19.06.2018 06:00:00 10,9 10,7 0 0 N - 10 -
19.06.2018 05:00:00 11,7 11,4 0 0 N - 10 -
19.06.2018 04:00:00 12,0 11,4 0 0 N - 10 -
19.06.2018 03:00:00 12,5 11,4 0 0 N - 10 -
19.06.2018 02:00:00 - - - - - - - -
19.06.2018 01:00:00 13,2 11,4 0 0 N - 10 -
19.06.2018 00:00:00 13,7 11,4 0 0 N - 10 -
18.06.2018 23:00:00 15,6 11,4 5 3 W 1023,0 10 -
18.06.2018 22:00:00 17,2 11,7 0 0 N 1022,6 10 0,0
18.06.2018 21:00:00 20,6 11,5 9 5 WNW 1021,6 10 -
18.06.2018 20:00:00 21,7 11,1 9 5 W 1021,2 10 -
18.06.2018 19:00:00 - - - - - - - -
18.06.2018 18:00:00 - - - - - - - -
18.06.2018 17:00:00 - - - - - - - -
18.06.2018 16:00:00 - - - - - - - -
18.06.2018 15:00:00 - - - - - - - -
18.06.2018 14:00:00 - - - - - - - -
18.06.2018 13:00:00 - - - - - - - -
18.06.2018 12:00:00 - - - - - - - -
18.06.2018 11:00:00 18,5 11,6 8 4 NNW 1022,1 10 -
18.06.2018 10:00:00 17,2 11,9 15 8 W 1022,3 10 -
18.06.2018 09:00:00 17,4 12,1 13 7 WNW 1021,7 10 -
18.06.2018 08:00:00 16,1 12,1 9 5 WNW 1020,9 10 -
18.06.2018 07:00:00 15,8 12,0 8 4 W 1020,9 10 -
18.06.2018 06:00:00 15,3 12,1 5 3 WNW 1020,5 10 -
18.06.2018 05:00:00 15,7 12,1 0 0 N 1020,2 10 -
18.06.2018 04:00:00 15,2 12,0 0 0 N 1020,4 10 -
18.06.2018 03:00:00 13,9 12,3 0 0 N 1020,0 10 -
18.06.2018 02:00:00 14,5 12,5 0 0 N 1019,9 10 -
18.06.2018 01:00:00 15,6 12,3 0 0 N 1019,5 10 -
18.06.2018 00:00:00 15,2 12,9 0 0 N 1019,5 10 -
17.06.2018 23:00:00 16,3 12,3 0 0 N 1019,0 10 -
17.06.2018 22:00:00 16,4 12,7 5 3 W 1018,5 10 0,0
17.06.2018 21:00:00 18,9 12,6 0 0 N 1018,1 10 -
17.06.2018 20:00:00 21,0 12,4 8 4 WNW 1017,5 10 -
17.06.2018 19:00:00 22,0 12,5 9 5 NW 1017,0 10 -
17.06.2018 18:00:00 22,8 13,5 13 7 NW 1016,8 10 -
17.06.2018 17:00:00 22,5 13,0 8 4 NW 1017,5 10 -
17.06.2018 16:00:00 21,1 13,5 15 8 WNW 1017,9 10 -
17.06.2018 15:00:00 22,3 14,7 16 9 WNW 1017,2 10 -
17.06.2018 14:00:00 23,3 15,3 13 7 WNW 1017,0 10 -
17.06.2018 13:00:00 22,0 15,6 18 10 WNW 1017,2 10 -
17.06.2018 12:00:00 22,5 15,1 16 9 W 1017,0 10 -
17.06.2018 11:00:00 23,0 14,5 9 5 WNW 1016,8 10 -
17.06.2018 10:00:00 22,5 14,6 9 5 W 1016,2 10 -
17.06.2018 09:00:00 19,3 14,1 0 0 N 1016,4 10 -
17.06.2018 08:00:00 16,3 12,6 0 0 N 1015,9 10 -
17.06.2018 07:00:00 13,1 11,8 0 0 N 1015,8 10 -
17.06.2018 06:00:00 11,9 11,0 0 0 N 1015,8 10 -
17.06.2018 05:00:00 10,9 10,0 0 0 N 1015,6 10 -
17.06.2018 04:00:00 9,6 9,4 0 0 N 1015,8 10 -
17.06.2018 03:00:00 11,3 9,4 0 0 N 1015,8 10 -
17.06.2018 02:00:00 12,0 9,4 0 0 N 1015,6 10 -
17.06.2018 01:00:00 12,6 9,1 0 0 N 1015,9 10 -
17.06.2018 00:00:00 13,3 9,2 0 0 N 1015,8 10 -
16.06.2018 23:00:00 14,2 9,8 5 3 W 1015,6 10 0,0
16.06.2018 22:00:00 16,2 10,5 5 3 W 1015,3 9 0,0
16.06.2018 21:00:00 19,1 11,4 8 4 W 1014,7 10 -
16.06.2018 20:00:00 23,2 10,6 0 0 N 1014,4 10 -
16.06.2018 19:00:00 25,5 8,9 0 0 N 1014,0 10 -
16.06.2018 18:00:00 25,7 8,6 11 6 ESE 1014,6 10 -
16.06.2018 17:00:00 25,2 9,5 5 3 SW 1014,8 10 -
16.06.2018 16:00:00 24,6 10,5 8 4 S 1015,1 10 -
16.06.2018 15:00:00 23,6 11,6 8 4 SE 1015,8 10 -
16.06.2018 14:00:00 23,6 12,6 13 7 ESE 1015,6 10 -
16.06.2018 13:00:00 22,5 10,9 11 6 SE 1016,5 10 -
16.06.2018 12:00:00 22,0 12,0 5 3 E 1016,8 10 -
16.06.2018 11:00:00 21,9 11,6 9 5 E 1016,6 10 -
16.06.2018 10:00:00 19,9 12,9 11 6 SE 1016,6 10 -
16.06.2018 09:00:00 17,9 13,2 0 0 N 1017,0 10 -
16.06.2018 08:00:00 15,6 13,1 0 0 N 1016,4 10 -
16.06.2018 07:00:00 11,4 11,2 0 0 N 1017,0 10 -
16.06.2018 06:00:00 9,2 9,0 0 0 N 1017,2 10 -
16.06.2018 05:00:00 8,8 8,6 0 0 N 1017,0 10 -
16.06.2018 04:00:00 9,7 9,5 0 0 N 1017,0 10 -
16.06.2018 03:00:00 10,5 10,3 0 0 N 1017,0 10 -
16.06.2018 02:00:00 11,1 10,9 0 0 N 1017,3 10 -
16.06.2018 01:00:00 11,3 10,8 0 0 N 1017,3 10 -
16.06.2018 00:00:00 12,6 11,2 0 0 N 1017,3 10 -
15.06.2018 23:00:00 14,0 11,3 0 0 N 1017,0 10 -
15.06.2018 22:00:00 15,4 12,1 5 3 W 1016,8 10 0,0
15.06.2018 21:00:00 19,1 11,9 0 0 N 1016,5 10 -
15.06.2018 20:00:00 21,4 10,8 5 3 NNW 1016,7 10 -
15.06.2018 19:00:00 22,0 11,1 8 4 NW 1016,3 10 -
15.06.2018 18:00:00 21,4 11,4 5 3 WSW 1016,7 10 -
15.06.2018 17:00:00 22,8 11,5 8 4 NW 1016,7 10 -
15.06.2018 16:00:00 22,0 10,8 9 5 NNE 1017,0 10 -
15.06.2018 15:00:00 21,0 11,3 5 3 W 1017,0 10 -
15.06.2018 14:00:00 20,9 11,2 0 0 N 1017,0 10 0,0
15.06.2018 13:00:00 20,3 10,7 0 0 N 1017,5 10 0,0
15.06.2018 12:00:00 18,7 10,0 5 3 W 1017,7 10 -
15.06.2018 11:00:00 18,3 10,4 0 0 N 1017,5 10 -
15.06.2018 10:00:00 18,2 11,0 0 0 N 1017,5 10 -
15.06.2018 09:00:00 14,6 12,1 0 0 N 1018,1 10 -
15.06.2018 08:00:00 11,8 11,3 0 0 N 1017,9 10 -
15.06.2018 07:00:00 9,6 9,4 0 0 N 1017,7 10 -
15.06.2018 06:00:00 7,9 7,8 0 0 N 1017,9 10 -
15.06.2018 05:00:00 9,2 9,0 0 0 N 1017,6 10 -
15.06.2018 04:00:00 10,7 10,2 5 3 N 1017,4 10 -
15.06.2018 03:00:00 10,6 10,4 0 0 N 1017,4 10 -
15.06.2018 02:00:00 10,1 9,9 0 0 N 1017,6 10 -
15.06.2018 01:00:00 10,2 10,0 0 0 N 1017,9 10 -
15.06.2018 00:00:00 9,9 9,7 0 0 N 1017,9 10 -
14.06.2018 23:00:00 11,1 10,3 5 3 W 1017,6 10 -
14.06.2018 22:00:00 11,3 10,5 5 3 W 1017,8 10 -
14.06.2018 21:00:00 13,8 11,5 8 4 W 1016,3 10 -
14.06.2018 20:00:00 17,6 10,2 0 0 N 1015,8 10 -
14.06.2018 19:00:00 17,9 9,8 8 4 W 1015,8 10 -
14.06.2018 18:00:00 17,1 9,5 0 0 N 1016,3 10 0,0
14.06.2018 17:00:00 16,6 10,0 0 0 N 1016,3 10 0,0
14.06.2018 16:00:00 16,6 10,0 5 3 NNE 1016,5 10 -
14.06.2018 15:00:00 16,4 10,5 0 0 N 1017,0 10 -
14.06.2018 14:00:00 16,0 10,1 8 4 SSW 1017,4 10 -
14.06.2018 13:00:00 15,0 10,0 9 5 E 1017,4 10 -
14.06.2018 12:00:00 15,0 9,4 0 0 N 1017,4 10 0,0
14.06.2018 11:00:00 14,5 10,1 0 0 N 1017,4 10 -
14.06.2018 10:00:00 13,7 10,5 0 0 N 1017,4 10 -
14.06.2018 09:00:00 13,0 10,7 0 0 N 1017,4 10 -
14.06.2018 08:00:00 12,4 10,8 0 0 N 1017,6 10 -
14.06.2018 07:00:00 12,0 10,6 0 0 N 1017,0 10 -

tt = Température de l'air
td = dewpoint
ff = Vitesse du vent
dd = Direction du vent
ppp = reduced air pressure
vv = visibility
rr = Quantités de précipitations

stations d'obs. à proximité